Wind_Speed
77 78 80 82 82 83 84 84 85 86 86 87 86 86 88 90 90 91 92 91 88 85 84 81 70 75 79 68 66 67 63 59 66 66 56 47 53 51 51 51 40 38 37
80 83 84 84 82 82 83 84 86 88 91 93 95 96 96 97 99 98 97 97 97 94 89 85 78 75 82 82 76 76 73 67 74 63 57 50 53 54 54 47 46 46 44
81 83 84 86 87 91 94 97 98 101 103 104 104 106 107 107 106 106 105 102 99 99 98 93 85 80 80 90 85 84 84 80 80 71 61 59 62 60 60 62 55 44 43
85 86 88 90 93 96 99 103 106 109 110 111 112 113 112 110 108 107 106 106 103 102 100 96 91 89 84 92 92 92 91 88 82 81 68 61 67 70 68 60 53 50 51
93 95 97 98 101 103 105 109 110 113 114 114 107 104 103 103 105 103 102 101 102 102 103 103 99 97 97 96 97 98 99 95 95 91 83 71 66 72 67 63 60 60 57
98 100 102 104 105 106 108 110 109 110 108 104 101 98 94 94 90 92 92 95 94 99 101 103 101 100 101 101 102 104 103 103 98 93 93 82 75 70 70 63 58 61 55
103 107 108 107 106 108 109 106 99 95 91 90 86 80 78 77 74 72 75 78 81 84 85 89 89 95 100 100 105 105 106 105 104 102 97 90 85 76 78 75 70 64 63
109 111 110 111 109 102 99 91 82 79 77 78 71 66 63 56 57 56 59 63 68 72 77 79 80 83 89 95 100 105 107 108 104 102 104 97 98 91 82 87 81 69 67
106 105 104 102 96 89 82 75 73 69 68 67 59 55 51 49 47 47 51 51 57 63 71 73 75 79 82 88 96 102 104 107 107 104 107 104 102 101 96 90 89 86 74
101 96 95 90 85 80 77 68 63 59 58 53 49 46 44 43 44 44 43 45 47 56 59 64 70 73 76 77 83 89 98 104 107 104 110 106 107 106 101 99 99 93 87
89 86 84 81 79 71 64 60 57 54 49 45 43 39 43 46 42 38 39 42 47 51 57 60 64 65 65 69 72 79 84 89 98 103 108 108 111 110 104 106 106 101 96
77 77 76 74 67 63 59 54 48 45 43 40 38 32 34 37 39 34 40 43 44 45 53 58 62 65 62 63 65 68 76 84 89 96 102 106 112 111 110 108 114 109 111
71 74 67 62 59 53 51 44 39 39 38 39 37 36 36 35 35 36 37 41 44 50 50 51 56 60 61 59 60 63 67 73 80 88 94 102 108 115 111 112 115 119 123
67 60 56 55 51 47 42 38 34 35 39 38 39 41 39 38 37 40 39 43 44 50 54 53 54 58 59 55 52 55 60 64 68 80 88 96 102 106 116 117 115 119 120
55 53 51 50 49 45 40 38 33 31 29 33 38 42 42 41 41 44 46 43 46 44 43 45 48 48 48 46 46 48 51 57 62 64 72 82 94 99 104 115 117 117 116
52 50 49 47 46 45 44 42 40 37 33 32 34 36 39 42 41 39 39 36 35 35 37 31 31 31 33 35 37 40 45 52 57 60 63 67 78 88 95 98 102 109 113
52 49 46 45 43 43 44 45 44 43 40 37 37 36 34 35 34 32 32 34 34 37 32 28 27 26 28 28 27 28 31 37 48 54 57 60 63 69 76 82 89 94 96
51 51 50 48 46 46 46 47 48 46 47 45 42 40 39 38 36 34 32 32 34 34 30 27 24 22 23 22 21 20 21 24 32 42 51 54 56 61 65 68 71 75 79
51 53 52 52 50 49 48 48 49 51 50 48 45 44 42 38 34 32 30 30 31 29 24 21 22 18 15 15 14 11 12 16 22 28 36 42 47 51 57 61 65 68 73
53 52 51 50 48 46 46 47 48 49 48 48 46 43 40 34 32 30 28 29 27 26 24 25 23 14 10 12 11 15 11 16 18 22 26 29 32 36 41 44 50 52 57
48 48 46 41 40 38 38 40 41 41 41 42 41 42 43 34 32 31 29 28 27 28 27 29 25 23 18 21 24 23 21 21 23 26 31 31 31 32 34 36 38 41 44
44 42 40 38 36 34 33 34 33 31 32 34 38 42 40 35 34 32 31 29 31 31 32 32 30 27 27 28 25 30 29 28 25 29 33 35 37 34 37 36 35 37 39
39 38 36 33 30 29 28 28 26 26 27 29 31 34 35 37 36 33 31 30 33 34 33 38 36 36 34 33 36 35 36 36 37 38 40 41 41 43 41 40 43 42 40
37 35 32 29 26 24 24 24 24 24 25 26 28 30 31 31 29 28 30 32 36 38 39 41 42 40 41 39 39 43 47 47 47 48 50 49 48 47 49 50 50 51 49
33 29 27 25 22 21 21 21 21 23 25 26 27 28 28 27 27 29 30 32 37 42 44 44 48 48 47 47 48 47 51 55 57 57 60 58 58 55 56 56 56 55 57
28 26 24 23 20 20 21 21 22 23 25 27 28 29 28 30 31 32 34 37 39 44 48 48 47 56 55 54 55 54 56 57 61 65 66 68 67 67 64 62 65 63 64
Wind_Direction
273 270 267 265 264 264 266 266 267 268 269 270 271 271 271 272 270 269 268 267 266 263 259 259 254 243 239 238 239 239 243 233 239 245 251 243 242 239 246 246 253 247 246
271 270 267 266 267 269 270 271 271 272 273 274 275 275 274 274 273 272 271 270 266 265 263 258 254 249 240 240 234 239 239 235 238 244 238 241 241 243 244 245 247 249 245
269 268 267 266 267 269 271 271 272 273 273 274 274 274 274 274 273 273 272 269 267 263 261 258 254 244 240 240 244 236 234 234 236 240 238 242 243 245 242 245 245 247 240
270 270 269 269 270 271 272 273 274 275 275 276 275 274 273 271 269 268 268 268 267 262 258 256 252 248 242 238 241 239 238 240 239 238 237 237 236 242 244 243 247 248 245
275 275 275 275 276 277 277 278 279 280 280 280 275 273 272 270 268 268 264 261 262 261 257 253 251 249 247 243 241 242 241 238 237 241 241 233 235 238 240 240 249 248 249
277 277 276 277 278 279 281 281 282 282 281 278 276 274 273 271 269 265 263 261 260 259 256 255 252 247 246 245 243 240 238 238 238 242 241 236 232 235 236 239 245 242 241
281 280 281 283 285 286 286 287 286 282 279 278 276 276 273 270 267 264 260 258 259 258 258 255 252 248 245 243 241 238 237 236 235 238 240 232 231 231 233 235 238 242 241
282 282 285 286 288 289 288 286 284 281 280 278 277 274 272 269 266 263 259 256 256 258 258 255 251 247 245 245 242 238 235 235 234 238 236 238 232 232 231 236 233 239 237
283 285 288 288 290 290 288 286 284 282 278 277 276 278 276 277 275 266 263 258 252 252 254 252 251 249 245 242 240 239 236 237 236 234 234 237 236 232 235 230 233 232 235
288 291 291 292 292 290 289 284 281 278 276 277 279 280 281 277 274 269 267 264 260 258 258 258 256 251 250 246 243 242 240 238 237 234 232 235 236 235 234 231 231 235 237
292 292 291 291 291 289 287 282 277 274 270 266 269 274 281 279 262 261 263 263 259 257 256 257 258 257 254 250 247 243 241 239 236 235 233 234 234 235 237 232 230 235 237
290 289 290 290 289 287 284 280 276 269 263 257 257 266 266 262 249 256 257 259 264 263 260 257 258 260 257 254 248 244 242 241 238 234 232 234 232 234 236 235 233 235 239
289 290 287 284 284 283 285 283 274 261 254 255 254 258 258 257 259 258 257 260 258 260 263 265 263 261 261 256 251 245 240 238 239 235 232 231 232 232 235 237 234 234 238
289 283 279 280 284 285 287 285 275 261 253 253 252 251 250 251 254 254 256 254 261 262 265 265 262 260 262 263 257 252 246 239 237 237 235 232 232 234 234 236 239 240 243
282 278 278 281 283 284 288 290 287 276 269 263 265 259 254 252 255 259 258 261 262 261 261 260 260 262 265 266 262 254 247 243 239 238 237 237 237 238 239 238 239 243 246
281 277 280 280 279 281 282 282 284 283 280 272 270 267 263 258 259 260 262 265 266 268 270 271 269 265 266 266 262 256 250 242 239 237 236 235 236 238 240 243 244 246 248
278 277 278 278 277 277 280 279 278 276 276 272 269 264 260 260 260 263 266 269 274 275 279 281 279 271 266 264 262 256 252 247 240 237 237 236 236 236 238 242 244 246 250
278 278 278 275 273 273 273 274 274 273 271 270 269 268 266 264 264 266 268 269 273 278 278 271 260 257 258 261 262 258 251 245 240 238 235 236 236 238 240 242 243 245 248
279 281 281 281 280 280 277 273 270 267 265 266 267 265 265 266 265 265 264 266 269 265 254 239 236 235 241 249 249 242 241 244 234 233 233 233 234 237 239 242 244 245 248
282 285 286 284 281 276 272 267 263 261 259 259 261 263 265 263 261 259 258 261 255 239 227 213 214 199 228 202 179 219 192 246 234 226 220 221 228 233 238 241 243 246 249
290 289 286 284 281 275 267 263 262 261 259 257 256 257 258 256 256 257 256 252 237 221 210 203 204 193 211 212 207 199 202 218 222 219 223 220 225 234 236 241 244 239 242
292 289 289 286 280 274 268 264 262 260 256 253 250 249 253 253 252 253 249 239 223 214 209 204 202 202 211 211 212 211 217 217 208 226 231 231 230 227 232 235 239 242 243
294 294 290 285 279 271 264 260 256 252 248 246 245 245 243 244 245 245 240 228 216 213 209 208 212 210 211 216 218 217 220 217 214 218 228 235 237 232 229 231 232 232 237
297 294 290 284 273 263 255 251 248 244 242 242 241 240 241 242 241 237 232 223 218 215 212 216 217 217 220 219 217 225 225 225 220 222 225 228 229 234 232 235 235 233 229
297 294 289 279 266 253 247 244 242 238 238 238 238 237 238 237 232 232 230 227 223 220 216 220 221 221 222 224 227 228 232 231 229 227 227 227 228 231 233 235 237 235 235
298 294 287 275 262 250 244 241 240 237 235 235 236 238 235 232 233 232 230 229 228 226 225 226 227 227 229 229 230 231 234 235 235 237 235 232 232 233 235 238 239 237 239
Height
10615 10613 10611 10610 10608 10605 10604 10602 10600 10599 10599 10598 10600 10601 10599 10598 10599 10599 10600 10602 10607 10614 10619 10625 10631 10636 10635 10638 10641 10641 10650 10655 10653 10660 10666 10666 10667 10670 10673 10673 10670 10672 10673
10596 10594 10592 10590 10588 10585 10583 10582 10580 10577 10575 10572 10571 10573 10574 10573 10570 10572 10573 10575 10579 10584 10590 10598 10605 10613 10616 10619 10623 10624 10627 10635 10635 10644 10650 10654 10654 10657 10659 10660 10656 10658 10661
10576 10574 10573 10571 10569 10564 10560 10557 10556 10554 10552 10549 10546 10544 10543 10543 10542 10541 10542 10544 10548 10553 10560 10568 10577 10585 10592 10595 10599 10604 10607 10612 10616 10624 10634 10639 10639 10641 10644 10645 10647 10647 10650
10553 10551 10550 10548 10546 10542 10538 10532 10529 10525 10519 10517 10515 10511 10509 10507 10509 10509 10511 10511 10514 10518 10525 10535 10547 10556 10565 10569 10574 10581 10586 10593 10596 10602 10613 10620 10621 10624 10629 10633 10635 10634 10638
10529 10527 10523 10521 10517 10514 10509 10503 10498 10490 10483 10480 10476 10475 10473 10473 10473 10473 10474 10476 10477 10483 10491 10498 10512 10523 10533 10541 10546 10553 10561 10569 10576 10582 10590 10600 10602 10607 10614 10619 10621 10621 10624
10506 10500 10495 10491 10488 10484 10478 10473 10468 10459 10450 10443 10441 10442 10439 10436 10437 10436 10438 10440 10445 10448 10454 10463 10477 10489 10498 10507 10515 10523 10533 10543 10554 10559 10568 10580 10585 10590 10595 10601 10603 10605 10611
10481 10472 10466 10461 10458 10452 10443 10437 10434 10424 10418 10414 10412 10413 10409 10408 10407 10407 10409 10414 10418 10422 10426 10432 10444 10455 10462 10471 10482 10492 10505 10516 10530 10538 10547 10557 10565 10570 10574 10581 10586 10590 10596
10450 10445 10441 10434 10428 10422 10415 10406 10400 10394 10392 10388 10389 10388 10387 10387 10387 10387 10388 10391 10396 10400 10403 10408 10413 10423 10433 10443 10452 10463 10472 10486 10502 10512 10522 10529 10542 10550 10556 10561 10566 10574 10580
10423 10419 10413 10406 10402 10392 10386 10380 10376 10373 10369 10366 10370 10369 10368 10368 10368 10370 10372 10375 10376 10378 10379 10384 10391 10398 10406 10413 10420 10433 10447 10458 10473 10486 10494 10505 10515 10526 10534 10539 10545 10555 10564
10400 10395 10384 10377 10372 10366 10362 10358 10356 10354 10352 10351 10351 10351 10352 10354 10354 10355 10357 10359 10361 10363 10366 10367 10370 10374 10382 10393 10403 10411 10421 10432 10443 10456 10468 10480 10490 10499 10510 10518 10523 10534 10545
10378 10370 10362 10355 10351 10345 10342 10339 10338 10338 10337 10338 10337 10336 10337 10338 10340 10343 10346 10347 10347 10348 10349 10350 10350 10355 10363 10371 10380 10388 10396 10406 10416 10430 10442 10452 10463 10473 10483 10492 10500 10511 10520
10357 10351 10345 10338 10333 10328 10325 10323 10323 10321 10321 10322 10323 10325 10326 10327 10330 10331 10333 10333 10334 10336 10336 10336 10336 10337 10345 10350 10356 10365 10372 10379 10389 10400 10411 10425 10435 10446 10455 10465 10478 10487 10496
10339 10331 10326 10322 10319 10315 10310 10309 10307 10305 10305 10307 10309 10311 10313 10314 10317 10319 10319 10321 10322 10323 10321 10323 10325 10324 10326 10331 10335 10341 10349 10358 10367 10377 10387 10397 10407 10421 10431 10441 10451 10460 10465
10321 10315 10311 10307 10305 10302 10299 10297 10295 10294 10294 10295 10296 10298 10299 10301 10303 10305 10306 10307 10307 10308 10310 10312 10311 10310 10311 10315 10321 10327 10333 10340 10348 10354 10365 10377 10387 10398 10409 10418 10428 10437 10444
10304 10301 10297 10293 10291 10289 10287 10286 10285 10285 10285 10285 10285 10286 10287 10289 10291 10293 10295 10295 10296 10297 10298 10298 10299 10300 10300 10301 10305 10310 10316 10321 10329 10341 10349 10359 10371 10377 10386 10396 10406 10413 10423
10288 10285 10282 10280 10278 10277 10276 10276 10274 10274 10275 10276 10276 10277 10277 10280 10281 10282 10284 10284 10285 10285 10284 10287 10288 10289 10289 10290 10291 10295 10299 10304 10310 10321 10330 10340 10349 10358 10365 10375 10385 10394 10400
10273 10272 10269 10267 10266 10265 10264 10264 10264 10264 10264 10265 10266 10267 10268 10269 10270 10272 10274 10275 10274 10273 10275 10277 10278 10279 10280 10281 10283 10285 10288 10292 10298 10306 10314 10322 10330 10338 10346 10355 10363 10369 10378
10258 10256 10255 10253 10253 10251 10251 10252 10252 10253 10253 10253 10254 10256 10257 10259 10262 10264 10266 10266 10265 10265 10267 10269 10271 10272 10273 10274 10276 10279 10281 10284 10288 10294 10301 10308 10315 10323 10330 10337 10344 10351 10357
10244 10242 10239 10237 10236 10235 10235 10237 10238 10238 10240 10241 10242 10244 10247 10250 10252 10254 10256 10257 10258 10259 10260 10262 10263 10266 10267 10270 10271 10274 10276 10278 10283 10287 10292 10297 10303 10309 10315 10321 10327 10333 10334
10231 10228 10224 10221 10220 10219 10218 10218 10219 10220 10223 10226 10230 10234 10237 10240 10243 10245 10248 10249 10250 10251 10252 10256 10257 10260 10263 10266 10270 10274 10274 10277 10279 10282 10285 10290 10294 10299 10303 10308 10313 10318 10322
10218 10213 10209 10207 10205 10203 10203 10203 10203 10205 10209 10214 10219 10223 10223 10230 10233 10235 10237 10239 10240 10242 10245 10248 10252 10254 10258 10261 10264 10268 10270 10273 10276 10278 10281 10282 10287 10291 10295 10298 10302 10306 10308
10204 10199 10196 10193 10192 10191 10191 10192 10193 10195 10198 10202 10205 10207 10212 10219 10221 10224 10225 10227 10229 10233 10237 10241 10244 10247 10250 10255 10258 10260 10264 10267 10270 10272 10274 10276 10279 10282 10285 10289 10291 10294 10297
10192 10188 10184 10182 10181 10180 10181 10182 10185 10187 10189 10192 10195 10199 10203 10206 10209 10212 10216 10218 10221 10225 10228 10232 10235 10238 10241 10244 10248 10252 10255 10257 10260 10262 10264 10266 10269 10272 10275 10278 10280 10283 10287
10182 10178 10175 10173 10172 10172 10173 10175 10177 10180 10182 10184 10187 10190 10193 10197 10201 10204 10207 10209 10212 10215 10219 10223 10225 10229 10232 10234 10236 10239 10243 10245 10248 10250 10251 10253 10256 10259 10262 10265 10268 10271 10274
10172 10170 10168 10166 10166 10166 10167 10169 10171 10174 10175 10178 10180 10182 10186 10189 10193 10195 10198 10201 10204 10206 10208 10210 10213 10216 10219 10221 10224 10227 10229 10232 10233 10234 10236 10239 10241 10243 10246 10249 10252 10256 10259
10164 10162 10161 10160 10160 10161 10162 10164 10165 10168 10169 10171 10173 10176 10178 10180 10183 10186 10189 10192 10194 10196 10198 10200 10202 10205 10206 10209 10211 10212 10214 10216 10219 10221 10222 10223 10224 10226 10230 10232 10234 10238 10241